TimeMDT,TemperatureF,Dew PointF,Humidity,Sea Level PressureIn,VisibilityMPH,Wind Direction,Wind SpeedMPH,Gust SpeedMPH,PrecipitationIn,Events,Conditions,WindDirDegrees,DateUTC
12:00 AM,20,18,90,30.06,,North,6.9,,,,,350,2012-10-04 06:00:00
12:00 AM,20.5,18.3,91,30.06,-9999.0,North,6.9,-,N/A,,Unknown,350,2012-10-04 06:00:00
1:00 AM,20.7,18.1,90,30.06,-9999.0,NNW,6.9,-,N/A,,Unknown,340,2012-10-04 07:00:00
2:00 AM,21.0,18.7,91,30.06,-9999.0,NNW,8.1,-,N/A,,Unknown,340,2012-10-04 08:00:00
3:00 AM,21.2,19.0,91,30.06,-9999.0,NNW,6.9,-,N/A,,Unknown,340,2012-10-04 09:00:00
4:00 AM,23.0,21.0,92,30.06,-9999.0,NNW,10.4,-,N/A,,Unknown,330,2012-10-04 10:00:00
5:00 AM,23.5,22.6,96,30.05,-9999.0,NNW,9.2,-,N/A,,Unknown,330,2012-10-04 11:00:00
6:00 AM,23,22,95,30.06,,NNW,10.4,,,,,340,2012-10-04 12:00:00
6:00 AM,23.4,22.1,95,30.06,-9999.0,NNW,10.4,-,N/A,,Unknown,340,2012-10-04 12:00:00
7:00 AM,22.5,21.2,95,30.06,-9999.0,NNW,9.2,-,N/A,,Unknown,340,2012-10-04 13:00:00
8:00 AM,22.8,20.8,92,30.06,-9999.0,North,10.4,-,N/A,,Unknown,350,2012-10-04 14:00:00
9:00 AM,23.5,20.7,89,30.06,-9999.0,NW,8.1,-,N/A,,Unknown,320,2012-10-04 15:00:00
10:00 AM,23.4,21.4,92,30.05,-9999.0,NW,6.9,-,N/A,,Unknown,320,2012-10-04 16:00:00
11:00 AM,23.9,22.8,96,30.05,-9999.0,North,3.5,-,N/A,,Unknown,360,2012-10-04 17:00:00
12:00 PM,24,23,93,30.04,,North,3.5,,,,,0,2012-10-04 18:00:00
12:00 PM,24.3,22.8,94,30.04,-9999.0,North,3.5,-,N/A,,Unknown,360,2012-10-04 18:00:00
1:00 PM,26.4,18.9,73,30.04,-9999.0,WNW,12.7,-,N/A,,Unknown,300,2012-10-04 19:00:00
2:00 PM,25.9,19.4,76,30.03,-9999.0,NW,9.2,-,N/A,,Unknown,320,2012-10-04 20:00:00
3:00 PM,25.2,20.1,81,30.03,-9999.0,NW,8.1,-,N/A,,Unknown,320,2012-10-04 21:00:00
4:00 PM,25.2,19.8,80,30.01,-9999.0,NNW,3.5,-,N/A,,Unknown,340,2012-10-04 22:00:00
5:00 PM,24.6,18.9,79,30.00,-9999.0,ENE,3.5,-,N/A,,Unknown,70,2012-10-04 23:00:00
6:00 PM,24,20,79,29.99,,South,3.5,,,,,170,2012-10-05 00:00:00
6:00 PM,24.3,20.1,84,29.99,-9999.0,South,3.5,-,N/A,,Unknown,170,2012-10-05 00:00:00
7:00 PM,24.3,22.1,91,29.98,-9999.0,ESE,4.6,-,N/A,,Unknown,110,2012-10-05 01:00:00
8:00 PM,25.0,22.3,89,29.96,-9999.0,ESE,4.6,-,N/A,,Unknown,120,2012-10-05 02:00:00
9:00 PM,24.1,21.2,89,29.94,-9999.0,SE,3.5,-,N/A,,Unknown,140,2012-10-05 03:00:00
10:00 PM,22.6,20.3,91,29.93,-9999.0,WSW,6.9,-,N/A,,Unknown,240,2012-10-05 04:00:00
11:00 PM,23.7,21.6,91,29.92,-9999.0,South,2.3,-,N/A,,Unknown,170,2012-10-05 05:00:00